{"data":{"norad_id":67780,"epoch":"2026-05-25T05:30:47.206656Z","epoch_age_seconds":49011,"freshness":"FRESH","line1":"1 67780U 26030S   26145.22971304  .00001623  00000+0  26164-3 0  9998","line2":"2 67780  51.8969 226.7110 0000877  92.2213 267.8848 14.76461305 16623","mean_motion":14.76461305,"eccentricity":8.77e-5,"inclination_deg":51.8969,"raan_deg":226.711,"arg_perigee_deg":92.2213,"mean_anomaly_deg":267.8848,"bstar":0.00026164,"rev_number":1662,"period_min":97.53049369621,"perigee_km":639.90084285838,"apogee_km":641.13191466101,"semimajor_km":7018.6533787597,"source":"CELESTRAK","updated_at":"2026-05-25T13:38:07.259589Z"}}